Weather in Ali-Berdukovskiy

Russia / Karachay-Cherkess Republic     43°59′33″N   41°44′30″E
temp.,
°C
wind,
m/s
gust,
m/s
humid.,
%
clouds,
%
prec.,
mm/h
press.,
hPa
HPBL,
m
20 january, thu
thu2000:00−9s1195100 0.0 102019
03:00−9ssw1193100 0.0 102127
06:00−11sse119386 0.1 102228
09:00−10s1283100 0.1 1023119
12:00−7nne1176100 0.0 1021401
15:00−6nne2284100 0.1 1021443
18:00−8e119797 0.2 102323
21:00−11s229418 0.2 102426
21 january, fri
fri2100:00−11s357965 0.0 102471
03:00−8s3574100 0.0 102389
06:00−9s457594 0.0 102262
09:00−7s45750 0.0 102189
12:00−1s12640 0.0 1017147
15:000ene11770 0.0 101654
18:00−5s22875 0.0 101911
21:00−5s3480100 0.0 101845
22 january, sat
sat2200:00−4s3479100 0.0 101758
03:00−5s3480100 0.0 101654
06:00−4s3479100 0.0 101442
09:00−3s3380100 0.0 101363
12:000nne1076100 0.0 101293
15:000nne238497 0.0 1011130
18:00−3n1195100 0.0 101412
21:00−4sse1194100 0.0 101312
23 january, sun
sun2300:00−4ene0193100 0.0 101314
03:00−5e1196100 0.0 101214
06:00−5se1196100 0.0 101111
09:00−4ene1190100 0.0 101149
12:00−2n1185100 0.0 1010210
15:00−1nne1083100 0.0 1009155
18:00−4nne2298100 0.0 101157
21:00−3e0194100 0.0 101265
24 january, mon
mon2400:00−3s239591 0.1 101246
03:00−3se1195100 0.3 101118
06:00−3nne0195100 0.1 101120
09:00−2nnw0198100 0.5 101229
12:00−1n2296100 0.1 1013321
15:00−2nnw2396100 1.4 1016359
18:00−4n3596100 1.0 1021419
21:00−5nnw0195100 1.3 1023106